[[{"header":{"parameterUnit":"m.s-1","parameterCategory":1,"la1":30.2991,"la2":30.254,"lo1":-89.0895,"lo2":-89.0444,"dy":0.0017,"dx":0.0017,"nx":28,"ny":28,"refTime":"2025-03-17T21:00:00:Z","depth":0,"parameterNumber":2,"parameterNumberName":"U-component_of_WINDS"},"data":[0,0,0,0,0,0,0,0,0,0,0,0,0,0,0,0,0,0,0,0,0,0,0,0,0,0,0,0,0,0,0,0,0,0,0,0,0,0,0,0,0,0,0,0,0,0,0,0,0,0,0,0,0,0,0,0,0,0,1.6118,1.6118,0,1.6174,1.6175,1.6175,1.6162,1.6161,1.616,1.6159,1.6216,1.6218,1.622,0,0,0,0,0,0,0,0,0,0,0,0,0,1.5997,1.5999,1.6118,1.6118,1.6119,1.6174,1.6175,1.6176,1.6162,1.6161,1.6159,1.6158,1.6215,1.6218,1.6221,0,0,0,0,0,0,0,0,0,0,0,0,0,1.6051,1.6,1.6118,1.6119,1.612,1.6174,1.6175,1.6176,1.6162,1.6161,1.6159,1.6157,1.6214,1.6217,1.6221,1.6277,0,0,1.6233,1.6234,0,0,0,0,0,0,0,0,1.6048,1.6055,1.6118,1.6119,1.612,1.6159,1.6153,1.621,1.6163,1.6146,1.6159,1.6157,1.6198,1.6203,1.6217,1.628,1.6282,1.6233,1.6235,1.6237,1.6238,0,0,0,0,0,0,0,1.6044,1.6053,1.614,1.6119,1.612,1.6116,1.6122,1.6164,1.618,1.6147,1.6147,1.6153,1.6198,1.6214,1.6218,1.6283,1.6233,1.6236,1.6239,1.624,1.6394,1.6395,0,0,0,0,0,0,1.604,1.605,1.6138,1.6142,1.6079,1.612,1.6126,1.6148,1.618,1.6183,1.6155,1.6153,1.6208,1.6214,1.622,1.6288,1.6237,1.6241,1.6243,1.6392,1.6394,1.6396,0,0,0,0,0,0,1.6037,1.6048,1.6136,1.6096,1.6107,1.6124,1.6148,1.615,1.6166,1.6186,1.6188,1.6167,1.6207,1.6215,1.6263,1.6289,1.6242,1.6246,1.639,1.6392,1.6395,1.6423,0,0,0,0,0,0,1.6034,1.6047,1.6069,1.6096,1.6109,1.6178,1.615,1.6153,1.6172,1.617,1.6198,1.6201,1.6206,1.6257,1.6267,1.6294,1.6249,1.6387,1.6391,1.6394,1.642,1.6426,1.6432,0,0,0,0,0,1.603,1.6075,1.607,1.6081,1.6137,1.618,1.6187,1.6192,1.6174,1.6196,1.6209,1.62,1.6285,1.6262,1.6273,1.6301,1.6386,1.639,1.6394,1.6417,1.6425,1.6432,0,0,0,0,0,0,1.605,1.6078,1.6074,1.6129,1.6152,1.6177,1.6205,1.62,1.6229,1.6225,1.623,1.6236,1.6285,1.6298,1.6272,1.6357,1.6333,1.6339,1.6347,1.6354,1.636,1.6356,1.6252,0,0,0,0,0,1.6061,1.6094,1.6117,1.6163,1.6175,1.6188,1.6207,1.6209,1.6233,1.6243,1.6259,1.6282,1.6314,1.6335,1.6365,1.6421,1.6427,1.6446,1.6452,1.6457,1.6462,1.6492,1.6501,1.6409,1.6409,1.6409,0,0,1.6084,1.6103,1.6124,1.6168,1.6186,1.622,1.6196,1.6233,1.6258,1.6248,1.6294,1.6307,1.6333,1.6385,1.6409,1.6398,1.6489,1.6462,1.6466,1.6469,1.6497,1.6506,1.6513,1.6412,1.6411,1.6411,0,0,1.6142,1.6161,1.6201,1.622,1.6248,1.6256,1.6266,1.6292,1.63,1.6346,1.6339,1.6368,1.6423,1.6442,1.6459,1.6524,1.6517,1.6534,1.6565,1.6594,1.6601,1.6608,1.6631,1.6639,1.6539,1.6539,1.6539,0,1.6167,1.6218,1.6223,1.626,1.6279,1.6271,1.6312,1.633,1.6366,1.6379,1.6366,1.6434,1.6451,1.6507,1.6523,1.6537,1.6547,1.6531,1.66,1.6607,1.6613,1.6634,1.6643,1.6541,1.6541,1.654,1.654,0,1.6247,1.6282,1.6312,1.6347,1.6369,1.6408,1.6418,1.644,1.6439,1.6449,1.6496,1.6516,1.655,1.6563,1.6563,1.6619,1.6611,1.6599,1.6575,1.6623,1.6644,1.6652,1.6543,1.6543,1.6542,1.6542,0,0,1.6321,1.6357,1.6368,1.6384,1.6413,1.6441,1.6479,1.6512,1.6531,1.6556,1.6587,1.6633,1.6622,1.6641,1.6643,1.6668,1.6718,1.6653,1.6653,1.6664,1.678,1.6789,1.6798,1.6713,1.6715,1.6716,1.6778,0,1.6382,1.645,1.6454,1.6515,1.6547,1.654,1.6573,1.6595,1.6604,1.6633,1.6643,1.6675,1.6658,1.667,1.6694,1.6706,1.6741,1.6702,1.6742,1.6744,1.6736,1.6809,1.6819,1.6876,1.6786,1.6787,1.6788,0,1.6463,1.649,1.6554,1.6579,1.6593,1.6622,1.6653,1.668,1.6704,1.6709,1.673,1.6728,1.6766,1.6741,1.6793,1.6767,1.6783,1.6791,1.6794,1.6798,1.6769,1.6815,1.6895,1.6903,1.6801,1.68,1.6799,0,1.651,1.6563,1.6608,1.6621,1.6651,1.6672,1.6685,1.6708,1.6727,1.6754,1.6766,1.6797,1.6813,1.6837,1.6843,1.6824,1.6895,1.687,1.69,1.69,1.6915,1.6914,1.6998,1.6926,1.6926,1.6926,1.6926,0,1.6578,1.6617,1.6629,1.6657,1.6701,1.6705,1.6748,1.676,1.6779,1.6809,1.6804,1.6832,1.6838,1.6867,1.6871,1.6914,1.6921,1.6926,1.6927,1.6927,1.6926,1.6938,1.6934,1.6928,1.6928,1.6927,1.6927,0,1.6638,1.6647,1.6696,1.672,1.6727,1.6758,1.6778,1.6805,1.6813,1.6851,1.6859,1.6873,1.6906,1.6915,1.6954,1.6957,1.7007,1.7004,1.7,1.6999,1.7029,1.7026,1.7123,1.7136,1.7055,1.7056,1.7057,0,1.668,1.671,1.6738,1.6757,1.6772,1.6803,1.6823,1.6828,1.6849,1.6878,1.69,1.6933,1.696,1.7013,1.7026,1.7056,1.7054,1.7086,1.7058,1.7057,1.7054,1.7052,1.7055,1.7091,1.7092,1.7093,1.7093,0,1.6755,1.6758,1.6787,1.6818,1.6842,1.6866,1.6889,1.6905,1.6913,1.6937,1.6971,1.6991,1.7032,1.7064,1.7094,1.7107,1.7102,1.7102,1.711,1.711,1.7106,1.7108,1.7014,1.71,1.7099,1.7099,1.7098,1.7098,1.6807,1.6834,1.6857,1.6889,1.6907,1.6929,1.6954,1.6966,1.6995,1.7028,1.7029,1.7066,1.7088,1.7128,1.7143,1.7171,1.7162,1.7174,1.7177,1.718,1.7182,1.7101,1.7177,1.7177,1.7177,1.7176,1.7176,0,1.6881,1.6896,1.6925,1.6958,1.6983,1.6976,1.7001,1.7022,1.7055,1.7076,1.7102,1.7141,1.7172,1.7187,1.7218,1.7238,1.7236,1.7246,1.7244,1.7247,1.719,1.7179,1.7247,1.7247,1.7247,1.7247,1.7247,1.7247,1.6923,1.6967,1.6972,1.7025,1.7039,1.7075,1.709,1.711,1.7127,1.717,1.7196,1.7206,1.7225,1.7256,1.7284,1.7288,1.7299,1.731,1.7313,1.7259,1.7251,1.7245,1.7235,1.7313,1.7313,1.7368,1.7368,1.7369]},{"header":{"parameterUnit":"m.s-1","parameterCategory":1,"la1":30.2991,"la2":30.254,"lo1":-89.0895,"lo2":-89.0444,"dy":0.0017,"dx":0.0017,"nx":28,"ny":28,"refTime":"2025-03-17T21:00:00:Z","depth":0,"parameterNumber":3,"parameterNumberName":"V-component_of_WINDS"},"data":[0,0,0,0,0,0,0,0,0,0,0,0,0,0,0,0,0,0,0,0,0,0,0,0,0,0,0,0,0,0,0,0,0,0,0,0,0,0,0,0,0,0,0,0,0,0,0,0,0,0,0,0,0,0,0,0,0,0,6.2432,6.2433,0,6.2548,6.255,6.2551,6.2515,6.2512,6.251,6.2508,6.2622,6.2627,6.2632,0,0,0,0,0,0,0,0,0,0,0,0,0,6.2171,6.2176,6.2432,6.2433,6.2435,6.2548,6.255,6.2551,6.2515,6.2512,6.2509,6.2506,6.262,6.2626,6.2633,0,0,0,0,0,0,0,0,0,0,0,0,0,6.2286,6.2178,6.2431,6.243,6.2431,6.2548,6.255,6.2552,6.2516,6.2512,6.2509,6.2505,6.2618,6.2626,6.2634,6.2757,0,0,6.2658,6.2662,0,0,0,0,0,0,0,0,6.2279,6.2295,6.2429,6.2431,6.2432,6.2513,6.25,6.262,6.2517,6.2484,6.2508,6.2503,6.2588,6.2599,6.2628,6.2762,6.2767,6.2659,6.2664,6.2667,6.2669,0,0,0,0,0,0,0,6.2272,6.229,6.2478,6.2431,6.2433,6.2422,6.2434,6.2523,6.2555,6.2486,6.2484,6.2499,6.2588,6.2621,6.2631,6.2769,6.2659,6.2666,6.2671,6.2674,6.3008,6.3012,0,0,0,0,0,0,6.2263,6.2284,6.2474,6.2481,6.2345,6.243,6.2443,6.2491,6.2554,6.256,6.2502,6.2496,6.2609,6.2622,6.2635,6.2783,6.2667,6.2675,6.2679,6.3004,6.3009,6.3013,0,0,0,0,0,0,6.2258,6.2281,6.2469,6.2382,6.2405,6.2438,6.2492,6.2495,6.2528,6.2566,6.2571,6.2529,6.2607,6.2623,6.2727,6.2786,6.2678,6.2685,6.2999,6.3005,6.3011,6.308,0,0,0,0,0,0,6.2251,6.2279,6.2328,6.2383,6.241,6.2562,6.2496,6.25,6.2542,6.2536,6.2593,6.2599,6.2605,6.2715,6.2735,6.2795,6.2692,6.2994,6.3002,6.3009,6.3073,6.3088,6.3101,0,0,0,0,0,6.2242,6.2341,6.233,6.2353,6.2472,6.2565,6.258,6.2587,6.2547,6.2595,6.2619,6.2597,6.2776,6.2726,6.2748,6.2812,6.299,6.3,6.3009,6.3067,6.3085,6.3101,0,0,0,0,0,0,6.229,6.2349,6.2337,6.2458,6.2507,6.2559,6.262,6.2606,6.2666,6.2658,6.2662,6.2675,6.2782,6.2806,6.2749,6.2934,6.2877,6.2891,6.2914,6.2932,6.2946,6.2938,6.2698,0,0,0,0,0,6.2315,6.2388,6.2434,6.2537,6.2562,6.2587,6.2628,6.2629,6.2679,6.2699,6.2731,6.2779,6.2846,6.289,6.2954,6.3076,6.3087,6.313,6.3144,6.3156,6.3168,6.3234,6.3254,6.3043,6.3043,6.3043,0,0,6.2367,6.2408,6.2453,6.2547,6.2585,6.2659,6.2604,6.2684,6.2739,6.271,6.2811,6.2836,6.2889,6.3003,6.3054,6.3027,6.3229,6.3168,6.3176,6.3183,6.3246,6.3266,6.3283,6.305,6.3049,6.3048,0,0,6.25,6.2538,6.2628,6.2667,6.2726,6.2742,6.2763,6.2817,6.2834,6.2934,6.2915,6.2978,6.3094,6.3133,6.3168,6.3314,6.3296,6.3335,6.3409,6.3473,6.349,6.3504,6.3557,6.3576,6.3347,6.3347,6.3347,0,6.2556,6.2669,6.2675,6.2758,6.2799,6.2778,6.2868,6.2905,6.2981,6.3009,6.2978,6.3123,6.3157,6.328,6.3316,6.3344,6.3368,6.3329,6.3487,6.3502,6.3516,6.3566,6.3586,6.3351,6.3351,6.335,6.335,0,6.2736,6.2814,6.2878,6.2955,6.3003,6.3089,6.3107,6.3154,6.3151,6.3169,6.3272,6.3312,6.3384,6.3413,6.3409,6.3534,6.3516,6.3486,6.3429,6.354,6.3587,6.3607,6.3358,6.3356,6.3355,6.3354,0,0,6.2903,6.2982,6.3006,6.304,6.3103,6.3162,6.3246,6.3318,6.3359,6.3411,6.3481,6.3579,6.3552,6.3592,6.3592,6.3649,6.3762,6.3611,6.3613,6.3639,6.3903,6.3926,6.3948,6.375,6.3753,6.3756,6.3898,0,6.3042,6.3192,6.32,6.3336,6.3407,6.3387,6.346,6.3506,6.3525,6.3586,6.3606,6.3676,6.3635,6.3659,6.3714,6.3737,6.3815,6.3727,6.3814,6.3817,6.3803,6.3972,6.3997,6.4129,6.3917,6.392,6.3922,0,6.3224,6.3285,6.3428,6.3481,6.3511,6.3577,6.3643,6.3703,6.3753,6.3762,6.3807,6.3799,6.3883,6.3823,6.3938,6.3878,6.3913,6.393,6.3935,6.3944,6.3877,6.3987,6.4172,6.4192,6.3951,6.3949,6.3947,0,6.3333,6.345,6.3551,6.358,6.3644,6.3691,6.3719,6.3766,6.3808,6.3865,6.3893,6.3958,6.3994,6.4044,6.4053,6.4008,6.4168,6.4109,6.4178,6.4178,6.4214,6.4212,6.4408,6.4235,6.4235,6.4235,6.4234,0,6.3488,6.3576,6.3601,6.3663,6.3761,6.3768,6.3864,6.3888,6.393,6.3995,6.3981,6.4042,6.405,6.4113,6.412,6.4214,6.423,6.424,6.4241,6.4242,6.4241,6.4266,6.4258,6.424,6.4239,6.4238,6.4237,0,6.3627,6.3647,6.3755,6.3807,6.3822,6.3892,6.3935,6.3994,6.4011,6.4093,6.4113,6.4139,6.4212,6.4226,6.4312,6.4317,6.4429,6.4421,6.4413,6.4413,6.4481,6.4475,6.4701,6.4731,6.4539,6.454,6.4542,0,6.3725,6.3793,6.3852,6.3896,6.3927,6.3997,6.4041,6.4049,6.4095,6.4157,6.4208,6.428,6.4338,6.4455,6.4481,6.4546,6.4539,6.4614,6.4549,6.4547,6.4541,6.4537,6.4544,6.4626,6.4629,6.463,6.4632,0,6.3897,6.3904,6.3968,6.4037,6.409,6.4143,6.4194,6.423,6.4245,6.4297,6.4372,6.4417,6.4505,6.4576,6.4641,6.4668,6.4653,6.4652,6.4671,6.4674,6.4667,6.4672,6.4448,6.4647,6.4645,6.4644,6.4643,6.4643,6.4019,6.4079,6.413,6.4202,6.4242,6.429,6.4347,6.4372,6.4436,6.451,6.451,6.4592,6.4639,6.4725,6.4756,6.4819,6.4795,6.4824,6.4831,6.4838,6.4845,6.4656,6.4831,6.483,6.483,6.483,6.4829,0,6.4191,6.4223,6.429,6.4362,6.4419,6.44,6.4455,6.4503,6.4577,6.4623,6.4681,6.4767,6.4835,6.4866,6.4934,6.4978,6.4973,6.4996,6.4993,6.4999,6.4862,6.4839,6.4999,6.4999,6.4999,6.4999,6.4999,6.4999,6.4288,6.4388,6.44,6.4519,6.4549,6.4632,6.4665,6.4708,6.4745,6.4842,6.49,6.492,6.496,6.503,6.5092,6.5099,6.5124,6.5151,6.5155,6.5026,6.5009,6.4993,6.4971,6.5156,6.5156,6.5287,6.5288,6.5289]}]]